| time (UTC) | temp C | wind direction | speed KPH | gust KPH | rain 1hr cm | rain 24hr cm | rain mn cm | humidity % | barometer mb |
| 20260902224504 | 18 | 188 | 3.2 | 16.1 | 0.00 | 0.00 | 0.00 | 61 | 1007.5 |
| 20260902223007 | 21 | 184 | 3.2 | 22.5 | 0.00 | 0.00 | 0.00 | 55 | 1007.3 |
| 20260902221508 | 23 | 187 | 0.0 | 6.4 | 0.00 | 0.00 | 0.00 | 42 | 1006.8 |
| 20260902220006 | 23 | 99 | 0.0 | 1.6 | 0.00 | 0.00 | 0.00 | 45 | 1006.7 |
| 20260902214509 | 23 | 99 | 0.0 | 3.2 | 0.00 | 0.00 | 0.00 | 43 | 1006.8 |
| 20260902213006 | 23 | 80 | 0.0 | 1.6 | 0.00 | 0.00 | 0.00 | 44 | 1006.8 |
| 20260902211507 | 24 | 102 | 0.0 | 4.8 | 0.00 | 0.00 | 0.00 | 42 | 1006.7 |
| 20260902210008 | 24 | 124 | 3.2 | 14.5 | 0.00 | 0.00 | 0.00 | 41 | 1006.7 |
| 20260902204510 | 24 | 126 | 0.0 | 14.5 | 0.00 | 0.00 | 0.00 | 40 | 1006.9 |
| 20260902203007 | 23 | 163 | 0.0 | 0.0 | 0.00 | 0.00 | 0.00 | 42 | 1007.0 |
| 20260902201508 | 23 | 191 | 0.0 | 12.9 | 0.00 | 0.00 | 0.00 | 43 | 1007.3 |
| 20260902200010 | 23 | 223 | 0.0 | 9.7 | 0.00 | 0.00 | 0.00 | 39 | 1007.5 |
| 20260902194524 | 23 | 178 | 0.0 | 12.9 | 0.00 | 0.00 | 0.00 | 41 | 1007.8 |
| 20260902193014 | 23 | 132 | 1.6 | 11.3 | 0.00 | 0.00 | 0.00 | 42 | 1008.0 |
| 20260902191512 | 23 | 186 | 0.0 | 17.7 | 0.00 | 0.00 | 0.00 | 42 | 1008.2 |
| 20260902190013 | 22 | 253 | 3.2 | 14.5 | 0.00 | 0.00 | 0.00 | 42 | 1008.4 |
| 20260902184514 | 22 | 165 | 1.6 | 16.1 | 0.00 | 0.00 | 0.00 | 43 | 1008.5 |
| 20260902183011 | 22 | 158 | 6.4 | 16.1 | 0.00 | 0.00 | 0.00 | 43 | 1008.7 |
| 20260902181516 | 21 | 130 | 6.4 | 16.1 | 0.00 | 0.00 | 0.00 | 44 | 1008.7 |
| 20260902180014 | 20 | 157 | 0.0 | 11.3 | 0.00 | 0.00 | 0.00 | 50 | 1008.8 |
| 20260902174514 | 19 | 172 | 4.8 | 16.1 | 0.00 | 0.00 | 0.00 | 50 | 1008.9 |
| 20260902173024 | 19 | 162 | 4.8 | 22.5 | 0.00 | 0.00 | 0.00 | 50 | 1008.9 |
| 20260902171518 | 18 | 210 | 3.2 | 20.9 | 0.00 | 0.00 | 0.00 | 52 | 1008.9 |
| 20260902170020 | 18 | 147 | 8.0 | 22.5 | 0.00 | 0.00 | 0.00 | 52 | 1008.8 |
| 20260902164517 | 17 | 173 | 6.4 | 20.9 | 0.00 | 0.00 | 0.00 | 56 | 1008.8 |
| 20260902163018 | 17 | 194 | 6.4 | 17.7 | 0.00 | 0.00 | 0.00 | 60 | 1008.8 |
| 20260902161533 | 16 | 202 | 9.7 | 22.5 | 0.00 | 0.00 | 0.00 | 61 | 1008.8 |
| 20260902160024 | 16 | 166 | 6.4 | 17.7 | 0.00 | 0.00 | 0.00 | 65 | 1009.0 |
| 20260902154506 | 15 | 120 | 6.4 | 16.1 | 0.00 | 0.00 | 0.00 | 67 | 1009.1 |
| 20260902153003 | 15 | 200 | 9.7 | 20.9 | 0.00 | 0.00 | 0.00 | 68 | 1009.3 |
| 20260902151503 | 15 | 139 | 6.4 | 16.1 | 0.00 | 0.00 | 0.00 | 70 | 1009.2 |
| 20260902150003 | 14 | 197 | 8.0 | 16.1 | 0.00 | 0.00 | 0.00 | 71 | 1009.1 |
| 20260902144506 | 14 | 215 | 6.4 | 20.9 | 0.00 | 0.00 | 0.00 | 72 | 1008.9 |
| 20260902143003 | 14 | 196 | 11.3 | 29.0 | 0.00 | 0.00 | 0.00 | 72 | 1008.6 |
| 20260902141502 | 14 | 164 | 14.5 | 30.6 | 0.00 | 0.00 | 0.00 | 72 | 1008.2 |
| 20260902140011 | 13 | 180 | 11.3 | 29.0 | 0.00 | 0.00 | 0.00 | 72 | 1008.1 |
| 20260902134516 | 13 | 145 | 9.7 | 19.3 | 0.00 | 0.00 | 0.00 | 73 | 1008.3 |
| 20260902133014 | 13 | 102 | 9.7 | 25.7 | 0.00 | 0.00 | 0.00 | 72 | 1008.4 |
| 20260902131512 | 13 | 195 | 8.0 | 20.9 | 0.00 | 0.00 | 0.00 | 72 | 1008.1 |
| 20260902130004 | 13 | 177 | 6.4 | 22.5 | 0.00 | 0.00 | 0.00 | 73 | 1008.0 |
| 20260902124504 | 13 | 157 | 9.7 | 19.3 | 0.00 | 0.00 | 0.00 | 73 | 1007.9 |
| 20260902123006 | 13 | 204 | 11.3 | 27.4 | 0.00 | 0.00 | 0.00 | 73 | 1008.2 |
| 20260902121515 | 13 | 206 | 12.9 | 30.6 | 0.00 | 0.00 | 0.00 | 74 | 1007.9 |
| 20260902120023 | 14 | 217 | 8.0 | 19.3 | 0.00 | 0.00 | 0.00 | 73 | 1008.1 |
| 20260902114510 | 15 | 166 | 8.0 | 22.5 | 0.00 | 0.00 | 0.00 | 67 | 1008.1 |
| 20260902113008 | 15 | 161 | 8.0 | 30.6 | 0.00 | 0.00 | 0.00 | 66 | 1008.1 |
| 20260902111511 | 15 | 150 | 11.3 | 29.0 | 0.00 | 0.00 | 0.00 | 67 | 1007.7 |
| 20260902110014 | 15 | 215 | 12.9 | 24.1 | 0.00 | 0.00 | 0.00 | 68 | 1007.6 |
| 20260902104545 | 15 | 281 | 11.3 | 25.7 | 0.00 | 0.00 | 0.00 | 68 | 1007.7 |
| 20260902103027 | 15 | 163 | 9.7 | 29.0 | 0.00 | 0.00 | 0.00 | 66 | 1007.4 |
| 20260902101514 | 15 | 144 | 11.3 | 25.7 | 0.00 | 0.00 | 0.00 | 66 | 1007.3 |
| 20260902100018 | 15 | 105 | 12.9 | 29.0 | 0.00 | 0.00 | 0.00 | 64 | 1007.4 |
| 20260902094516 | 15 | 178 | 9.7 | 27.4 | 0.00 | 0.00 | 0.00 | 63 | 1007.4 |
| 20260902093033 | 15 | 188 | 9.7 | 25.7 | 0.00 | 0.00 | 0.00 | 62 | 1007.2 |
| 20260902091531 | 16 | 136 | 6.4 | 24.1 | 0.00 | 0.00 | 0.00 | 61 | 1007.3 |
| 20260902090020 | 16 | 142 | 8.0 | 14.5 | 0.00 | 0.00 | 0.00 | 62 | 1007.6 |
| 20260902084502 | 16 | 199 | 6.4 | 20.9 | 0.00 | 0.00 | 0.00 | 62 | 1007.6 |
| 20260902083006 | 16 | 229 | 6.4 | 17.7 | 0.00 | 0.00 | 0.00 | 62 | 1007.6 |
| 20260902081504 | 16 | 115 | 8.0 | 24.1 | 0.00 | 0.00 | 0.00 | 61 | 1007.4 |
| 20260902080008 | 16 | 171 | 9.7 | 22.5 | 0.00 | 0.00 | 0.00 | 58 | 1007.5 |
| 20260902074505 | 17 | 161 | 9.7 | 24.1 | 0.00 | 0.00 | 0.00 | 58 | 1007.5 |
| 20260902073004 | 17 | 149 | 9.7 | 20.9 | 0.00 | 0.00 | 0.00 | 58 | 1007.3 |
| 20260902071504 | 17 | 186 | 8.0 | 22.5 | 0.00 | 0.00 | 0.00 | 57 | 1007.2 |
| 20260902070006 | 17 | 238 | 8.0 | 22.5 | 0.00 | 0.00 | 0.00 | 55 | 1006.9 |
| 20260902064507 | 17 | 215 | 8.0 | 25.7 | 0.00 | 0.00 | 0.00 | 54 | 1007.0 |
| 20260902063003 | 18 | 240 | 11.3 | 24.1 | 0.00 | 0.00 | 0.00 | 54 | 1006.4 |
| 20260902061507 | 18 | 159 | 9.7 | 27.4 | 0.00 | 0.00 | 0.00 | 53 | 1006.3 |
| 20260902060013 | 18 | 167 | 11.3 | 35.4 | 0.00 | 0.00 | 0.00 | 51 | 1006.2 |
| 20260902054508 | 18 | 143 | 12.9 | 33.8 | 0.00 | 0.00 | 0.00 | 51 | 1006.2 |
| 20260902053003 | 19 | 175 | 12.9 | 33.8 | 0.00 | 0.00 | 0.00 | 51 | 1006.1 |
| 20260902051506 | 19 | 163 | 14.5 | 37.0 | 0.00 | 0.00 | 0.00 | 51 | 1006.0 |
| 20260902050008 | 20 | 188 | 14.5 | 30.6 | 0.00 | 0.00 | 0.00 | 50 | 1005.9 |
| 20260902044531 | 20 | 176 | 12.9 | 25.7 | 0.00 | 0.00 | 0.00 | 48 | 1005.9 |
| 20260902043013 | 20 | 169 | 12.9 | 32.2 | 0.00 | 0.00 | 0.00 | 47 | 1005.7 |
| 20260902041503 | 21 | 240 | 9.7 | 25.7 | 0.00 | 0.00 | 0.00 | 45 | 1005.5 |
| 20260902040007 | 21 | 189 | 12.9 | 27.4 | 0.00 | 0.00 | 0.00 | 42 | 1005.4 |
| 20260902034505 | 22 | 177 | 9.7 | 29.0 | 0.00 | 0.00 | 0.00 | 40 | 1005.3 |
| 20260902033004 | 22 | 206 | 11.3 | 20.9 | 0.00 | 0.00 | 0.00 | 37 | 1005.2 |
| 20260902031535 | 23 | 205 | 8.0 | 19.3 | 0.00 | 0.00 | 0.00 | 35 | 1005.4 |
| 20260902030004 | 23 | 153 | 9.7 | 17.7 | 0.00 | 0.00 | 0.00 | 34 | 1005.1 |
| 20260902024507 | 24 | 139 | 6.4 | 20.9 | 0.00 | 0.00 | 0.00 | 34 | 1005.0 |
| 20260902023015 | 25 | 175 | 6.4 | 17.7 | 0.00 | 0.00 | 0.00 | 33 | 1004.9 |
| 20260902021515 | 25 | 178 | 3.2 | 11.3 | 0.00 | 0.00 | 0.00 | 34 | 1005.0 |
| 20260902020010 | 26 | 153 | 0.0 | 4.8 | 0.00 | 0.00 | 0.00 | 35 | 1005.0 |
| 20260902014521 | 26 | 175 | 0.0 | 6.4 | 0.00 | 0.00 | 0.00 | 34 | 1005.0 |
| 20260902013011 | 27 | 173 | 3.2 | 8.0 | 0.00 | 0.00 | 0.00 | 32 | 1005.0 |
| 20260902011518 | 27 | 178 | 1.6 | 9.7 | 0.00 | 0.00 | 0.00 | 31 | 1005.0 |
| 20260902010023 | 27 | 162 | 0.0 | 8.0 | 0.00 | 0.00 | 0.00 | 33 | 1005.0 |
| 20260902004518 | 27 | 180 | 1.6 | 8.0 | 0.00 | 0.00 | 0.00 | 32 | 1005.1 |
| 20260902003011 | 27 | 167 | 1.6 | 4.8 | 0.00 | 0.00 | 0.00 | 32 | 1005.1 |
| 20260902001515 | 27 | 157 | 0.0 | 1.6 | 0.00 | 0.00 | 0.00 | 38 | 1005.1 |
| 20260902000034 | 28 | 155 | 0.0 | 4.8 | 0.00 | 0.00 | 0.00 | 37 | 1005.2 |
| 20260901234545 | 28 | 153 | 0.0 | 3.2 | 0.00 | 0.00 | 0.00 | 35 | 1005.2 |
| 20260901233024 | 28 | 130 | 0.0 | 6.4 | 0.00 | 0.00 | 0.00 | 32 | 1005.2 |
| 20260901231513 | 28 | 123 | 0.0 | 1.6 | 0.00 | 0.00 | 0.00 | 29 | 1005.3 |
| 20260901230008 | 28 | 142 | 0.0 | 6.4 | 0.00 | 0.00 | 0.00 | 29 | 1005.5 |